Back to catalog

STARLINK-34126

AliveCommunicationsVLEO
NORAD 64083·PAYLOAD·🇺🇸 United States

Launched May 21, 2025 from Cape Canaveral Space Force Station

Loading…

Next Passes (next 24 hours)

TLE

FreshSource: CelesTrak SupGP

Epoch: Sep 14, 2026, 14:57 UTC

1 64083C 25107V   26257.62340278 -.00022031  00000+0 -79808-3 0  2571
2 64083  43.0001 214.7834 0001445 266.4230  60.0171 15.27583969    18

Track STARLINK-34126 in real time with AllMySat

Download on the App Store